When you browse on this site, cookies collect data to enhance your experience and personalize the content and advertising you see.
Visit our Privacy Policy to learn more. By continuing to use the site, you agree to this use of cookies and data.

Tiempo cada hora Goiania

Hoy, 27 Septiembre, Domingo

Tiempo Temperatura Precipitaciones Viento Presión Humedad
00:00 +25°C° 0 mm 2 mps 697 mmHg 30%
01:00 +25°C° 0 mm 2 mps 697 mmHg 32%
02:00 +24°C° 0 mm 2 mps 697 mmHg 33%
03:00 +24°C° 0 mm 2 mps 696 mmHg 35%
04:00 +23°C° 0 mm 2 mps 697 mmHg 37%
05:00 +23°C° 0 mm 2 mps 697 mmHg 38%
06:00 +23°C° 0 mm 2 mps 697 mmHg 40%
07:00 +26°C° 0 mm 2 mps 698 mmHg 34%
08:00 +29°C° 0 mm 3 mps 699 mmHg 28%
09:00 +34°C° 0 mm 3 mps 700 mmHg 22%
10:00 +35°C° 0 mm 3 mps 700 mmHg 19%
11:00 +37°C° 0 mm 3 mps 700 mmHg 17%
12:00 +39°C° 0 mm 2 mps 700 mmHg 14%
13:00 +39°C° 0 mm 2 mps 699 mmHg 14%
14:00 +39°C° 0 mm 2 mps 698 mmHg 13%
15:00 +40°C° 0 mm 2 mps 697 mmHg 13%
16:00 +38°C° 0 mm 2 mps 697 mmHg 14%
17:00 +36°C° 0 mm 2 mps 697 mmHg 16%
18:00 +34°C° 0 mm 2 mps 696 mmHg 18%
19:00 +31°C° 0 mm 2 mps 697 mmHg 20%
20:00 +30°C° 0 mm 1 mps 697 mmHg 22%
21:00 +28°C° 0 mm 1 mps 698 mmHg 23%
22:00 +27°C° 0 mm 1 mps 698 mmHg 24%
23:00 +26°C° 0 mm 1 mps 698 mmHg 26%

Mañana, 28 Septiembre, Lunes

Tiempo Temperatura Precipitaciones Viento Presión Humedad
00:00 +26°C° 0 mm 1 mps 698 mmHg 27%
01:00 +25°C° 0 mm 1 mps 697 mmHg 27%
02:00 +25°C° 0 mm 1 mps 697 mmHg 27%
03:00 +24°C° 0 mm 1 mps 696 mmHg 28%
04:00 +24°C° 0 mm 1 mps 696 mmHg 29%
05:00 +23°C° 0 mm 1 mps 696 mmHg 29%
06:00 +23°C° 0 mm 1 mps 696 mmHg 30%
07:00 +27°C° 0 mm 1 mps 697 mmHg 26%
08:00 +30°C° 0 mm 2 mps 699 mmHg 21%
09:00 +35°C° 0 mm 2 mps 700 mmHg 17%
10:00 +37°C° 0 mm 2 mps 700 mmHg 15%
11:00 +39°C° 0 mm 2 mps 700 mmHg 13%
12:00 +41°C° 0 mm 2 mps 699 mmHg 11%
13:00 +41°C° 0 mm 2 mps 699 mmHg 11%
14:00 +41°C° 0 mm 1 mps 698 mmHg 10%
15:00 +41°C° 0 mm 1 mps 697 mmHg 10%
16:00 +39°C° 0 mm 1 mps 697 mmHg 12%
17:00 +36°C° 0 mm 1 mps 696 mmHg 13%
18:00 +34°C° 0 mm 1 mps 696 mmHg 15%
19:00 +32°C° 0 mm 1 mps 696 mmHg 17%
20:00 +31°C° 0 mm 1 mps 697 mmHg 18%
21:00 +29°C° 0 mm 1 mps 697 mmHg 20%
22:00 +28°C° 0 mm 1 mps 697 mmHg 20%
23:00 +28°C° 0 mm 1 mps 697 mmHg 21%

Pasado mañana, 29 Septiembre, Martes

Tiempo Temperatura Precipitaciones Viento Presión Humedad
00:00 +27°C° 0 mm 1 mps 697 mmHg 22%
01:00 +26°C° 0 mm 1 mps 697 mmHg 23%
02:00 +26°C° 0 mm 1 mps 696 mmHg 23%
03:00 +26°C° 0 mm 2 mps 696 mmHg 24%
04:00 +25°C° 0 mm 1 mps 696 mmHg 25%
05:00 +25°C° 0 mm 1 mps 696 mmHg 25%
06:00 +24°C° 0 mm 1 mps 696 mmHg 26%
07:00 +28°C° 0 mm 2 mps 697 mmHg 23%
08:00 +31°C° 0 mm 3 mps 699 mmHg 19%
09:00 +36°C° 0 mm 4 mps 700 mmHg 16%
10:00 +37°C° 0 mm 4 mps 699 mmHg 14%
11:00 +39°C° 0 mm 3 mps 699 mmHg 12%
12:00 +42°C° 0 mm 3 mps 699 mmHg 10%
13:00 +43°C° 0 mm 3 mps 698 mmHg 10%
14:00 +43°C° 0 mm 3 mps 698 mmHg 10%
15:00 +43°C° 0 mm 3 mps 697 mmHg 9%
16:00 +40°C° 0 mm 3 mps 697 mmHg 11%
17:00 +38°C° 0 mm 3 mps 696 mmHg 13%
18:00 +36°C° 0 mm 2 mps 696 mmHg 14%
19:00 +35°C° 0 mm 2 mps 697 mmHg 16%
20:00 +32°C° 0 mm 2 mps 697 mmHg 17%
21:00 +30°C° 0 mm 2 mps 697 mmHg 19%
22:00 +29°C° 0 mm 2 mps 697 mmHg 20%
23:00 +29°C° 0 mm 2 mps 697 mmHg 21%

30 Septiembre, Miércoles

Tiempo Temperatura Precipitaciones Viento Presión Humedad
00:00 +28°C° 0 mm 2 mps 697 mmHg 23%
01:00 +28°C° 0 mm 3 mps 697 mmHg 24%
02:00 +28°C° 0 mm 3 mps 697 mmHg 24%
03:00 +27°C° 0 mm 3 mps 697 mmHg 25%
04:00 +28°C° 0 mm 4 mps 697 mmHg 26%
05:00 +28°C° 0 mm 4 mps 698 mmHg 27%
06:00 +28°C° 0 mm 5 mps 698 mmHg 28%
07:00 +30°C° 0 mm 5 mps 699 mmHg 27%
08:00 +33°C° 0 mm 6 mps 699 mmHg 25%
09:00 +35°C° 0 mm 6 mps 700 mmHg 24%
10:00 +36°C° 0 mm 6 mps 700 mmHg 21%
11:00 +39°C° 0 mm 6 mps 700 mmHg 18%
12:00 +41°C° 0 mm 5 mps 700 mmHg 14%
13:00 +41°C° 0 mm 5 mps 699 mmHg 14%
14:00 +42°C° 0 mm 5 mps 698 mmHg 13%
15:00 +42°C° 0 mm 4 mps 698 mmHg 13%
16:00 +40°C° 0 mm 4 mps 697 mmHg 15%
17:00 +37°C° 0 mm 3 mps 697 mmHg 16%
18:00 +36°C° 0 mm 3 mps 697 mmHg 18%
19:00 +34°C° 0 mm 3 mps 697 mmHg 20%
20:00 +31°C° 0 mm 3 mps 697 mmHg 22%
21:00 +30°C° 0 mm 3 mps 698 mmHg 23%
22:00 +29°C° 0 mm 3 mps 698 mmHg 25%
23:00 +28°C° 0 mm 3 mps 698 mmHg 27%

1 Octubre, Jueves

Tiempo Temperatura Precipitaciones Viento Presión Humedad
00:00 +28°C° 0 mm 2 mps 698 mmHg 28%
01:00 +27°C° 0 mm 2 mps 698 mmHg 29%
02:00 +26°C° 0 mm 2 mps 697 mmHg 30%
03:00 +26°C° 0 mm 2 mps 697 mmHg 32%
04:00 +25°C° 0 mm 3 mps 697 mmHg 33%
05:00 +25°C° 0 mm 3 mps 697 mmHg 34%
06:00 +25°C° 0 mm 3 mps 698 mmHg 35%
07:00 +28°C° 0 mm 3 mps 698 mmHg 31%
08:00 +30°C° 0 mm 4 mps 699 mmHg 27%
09:00 +34°C° 0 mm 5 mps 700 mmHg 23%
10:00 +36°C° 0 mm 5 mps 700 mmHg 20%
11:00 +38°C° 0 mm 4 mps 700 mmHg 17%
12:00 +41°C° 0 mm 4 mps 700 mmHg 14%
13:00 +41°C° 0 mm 4 mps 699 mmHg 14%
14:00 +42°C° 0 mm 4 mps 698 mmHg 13%
15:00 +42°C° 0 mm 4 mps 697 mmHg 13%
16:00 +39°C° 0 mm 3 mps 697 mmHg 15%
17:00 +37°C° 0 mm 3 mps 696 mmHg 17%
18:00 +35°C° 0 mm 3 mps 696 mmHg 19%
19:00 +34°C° 0 mm 3 mps 696 mmHg 21%
20:00 +31°C° 0 mm 3 mps 697 mmHg 23%
21:00 +30°C° 0 mm 2 mps 697 mmHg 25%
22:00 +29°C° 0 mm 3 mps 697 mmHg 26%
23:00 +29°C° 0 mm 3 mps 698 mmHg 27%

2 Octubre, Viernes

Tiempo Temperatura Precipitaciones Viento Presión Humedad
00:00 +28°C° 0 mm 3 mps 698 mmHg 28%
01:00 +28°C° 0 mm 3 mps 697 mmHg 27%
02:00 +28°C° 0 mm 3 mps 697 mmHg 27%
03:00 +27°C° 0 mm 3 mps 697 mmHg 27%
04:00 +27°C° 0 mm 3 mps 697 mmHg 27%
05:00 +26°C° 0 mm 3 mps 697 mmHg 27%
06:00 +26°C° 0 mm 2 mps 697 mmHg 28%
07:00 +29°C° 0 mm 3 mps 698 mmHg 24%
08:00 +32°C° 0 mm 4 mps 699 mmHg 21%
09:00 +35°C° 0 mm 4 mps 700 mmHg 17%
10:00 +37°C° 0 mm 3 mps 700 mmHg 16%
11:00 +40°C° 0 mm 2 mps 700 mmHg 14%
12:00 +42°C° 0 mm 1 mps 700 mmHg 12%
13:00 +42°C° 0 mm 1 mps 699 mmHg 11%
14:00 +42°C° 0 mm 2 mps 698 mmHg 10%
15:00 +42°C° 0 mm 2 mps 697 mmHg 9%
16:00 +40°C° 0 mm 2 mps 697 mmHg 11%
17:00 +38°C° 0 mm 2 mps 697 mmHg 12%
18:00 +36°C° 0 mm 2 mps 696 mmHg 14%
19:00 +35°C° 0 mm 2 mps 697 mmHg 15%
20:00 +32°C° 0 mm 2 mps 697 mmHg 17%
21:00 +30°C° 0 mm 2 mps 697 mmHg 19%
22:00 +29°C° 0 mm 2 mps 697 mmHg 20%
23:00 +29°C° 0 mm 2 mps 697 mmHg 21%
Mostrar más